Home   Weather   Kunduz   Past weeks

Flag for Afghanistan Past Weather in Kunduz, Afghanistan — Yesterday and Last 2 Weeks

Now
79 °F

Clear.


Feels Like: 79 °F
Forecast: 59 / 72 °F
Wind: 16 mph from West

Location: Termez Airport

Current Time: Apr 26, 2017 at 10:23:58 am

Latest Report: Apr 26, 2017 at 10:00 am


Visibility: 4 mi

Pressure: 30.04 "Hg

Humidity: 32%

Dew Point: 46 °F

Location of KunduzLocation

Past Weather in Kunduz — Graph

°F

Kunduz Temperature Yesterday

Maximum temperature yesterday: 91 °F (at 4:00 pm)
Minimum temperature yesterday: 59 °F (at 5:30 am)
Average temperature yesterday: 76 °F

High & Low Weather Summary for the Past Weeks

 TemperatureHumidityPressure
High95 °F (Apr 16, 3:00 pm)94% (Apr 14, 5:00 am)30.36 "Hg (Apr 14, 5:00 am)
Low52 °F (Apr 14, 4:30 am)6% (Apr 23, 4:00 pm)29.71 "Hg (Apr 20, 2:30 am)
Average72 °F47%29.97 "Hg
* Reported Apr 11 8:30 am — Apr 26 9:00 am, Kunduz, Weather by CustomWeather, © 2017

Note: Actual official high and low records may vary slightly from our data, if they occured in-between our weather recording intervals... More about our weather records

Advertising

Kunduz Weather History for the Previous 24 Hours

Scroll right to see more
 ConditionsComfort  
Time TempWeatherWind HumidityBarometerVisibility
9:00 am
Wed, Apr 26
75 °FClear.18 mph36%30.04 "Hg4 mi
8:30 am73 °FClear.16 mph41%30.04 "Hg4 mi
8:00 am72 °FSunny.16 mph44%30.01 "Hg10 mi
7:30 am70 °FSunny.14 mph50%30.01 "Hg10 mi
7:00 am66 °FSunny.7 mph56%30.01 "Hg10 mi
6:30 am63 °FSunny.5 mph64%29.98 "Hg10 mi
5:30 am57 °FSunny.5 mph72%29.95 "Hg10 mi
4:30 am57 °FClear.2 mph72%29.92 "Hg10 mi
4:00 am57 °FClear.5 mph72%29.92 "Hg10 mi
3:30 am57 °FClear.5 mph72%29.92 "Hg10 mi
3:00 am59 °FClear.2 mph59%29.92 "Hg10 mi
2:30 am59 °FClear.2 mph59%29.92 "Hg10 mi
1:30 am63 °FClear.2 mph56%29.89 "Hg10 mi
12:30 am63 °FClear.5 mph59%29.89 "Hg10 mi
12:00 am81 °FClear.5 mph32%29.89 "Hg10 mi
11:30 pm
Tue, Apr 25
68 °FClear.5 mph40%29.89 "Hg10 mi
11:00 pm72 °FClear.7 mph33%29.89 "Hg10 mi
10:30 pm70 °FClear.7 mph33%29.89 "Hg10 mi
10:00 pm70 °FClear.7 mph35%29.89 "Hg10 mi
9:30 pm72 °FClear.7 mph36%29.89 "Hg10 mi
9:00 pm73 °FClear.9 mph33%29.89 "Hg10 mi
8:30 pm72 °FClear.9 mph41%29.89 "Hg10 mi
8:00 pm73 °FClear.7 mph41%29.86 "Hg10 mi
7:30 pm77 °FClear.9 mph34%29.86 "Hg10 mi
7:00 pm79 °FClear.9 mph30%29.86 "Hg10 mi
6:30 pm82 °FSunny.2 mph28%29.83 "Hg10 mi
6:00 pm84 °FSunny.5 mph23%29.83 "Hg10 mi
5:30 pm88 °FPassing clouds.7 mph21%29.83 "HgN/A
5:00 pm90 °FPassing clouds.5 mph18%29.83 "HgN/A
4:30 pm90 °FPassing clouds.5 mph18%29.83 "HgN/A
4:00 pm91 °FSunny.2 mph17%29.83 "Hg10 mi
3:30 pm90 °FPassing clouds.7 mph16%29.83 "HgN/A
3:00 pm90 °FPassing clouds.5 mph18%29.83 "HgN/A
2:30 pm90 °FPassing clouds.7 mph18%29.86 "HgN/A
2:00 pm90 °FSunny.5 mph18%29.86 "Hg10 mi
1:30 pm88 °FPassing clouds.7 mph21%29.86 "HgN/A
1:00 pm90 °FSunny.5 mph21%29.86 "Hg10 mi
12:00 pm86 °FSunny.7 mph22%29.89 "Hg10 mi
11:30 am86 °FPassing clouds.7 mph24%29.89 "HgN/A
11:00 am86 °FPassing clouds.5 mph24%29.89 "HgN/A
10:30 am84 °FSunny.2 mph25%29.89 "Hg10 mi
10:00 am84 °FPassing clouds.5 mph25%29.89 "HgN/A
Weather by CustomWeather, © 2017

See weather overviewHow to use our weather pages